ニート彗星

180P/NEAT (2000)

English version
Home page
Total 6,336 html files since Dec. 4, 1995
Updated on October 29, 2006

---------------------------------------------------------------------

・ プロフィール

符号 180P/2001 K1
発見日 2001年5月20日
発見光度 18.7等
発見者 Near-Earth-Asteroid Tracking Team (Jet Propulsion Laboratory)

・ 軌道要素

                    Epoch = 2000 Oct. 23.0 TT
     T = 2000 Nov.  6.8998 TT         Peri. =  94.6503
     e = 0.357232                     Node  =  84.8386  2000.0
     q = 2.470580 AU                  Incl. =  16.9125
       a =  3.843656 AU    n = 0.1307938    P =   7.536 years

・ 星図

・ 光度変化

        m1 = 7.5 + 5 logΔ + 20.0 log r

---------------------------------------------------------------------

軌道要素は Dr. Brian G. Marsden の計算によるもので、 IAUC 8765 に掲載されたものです。
星図は StellaNavigator Ver.2.0 for Windows (アストロアーツ 編著 / アスキー出版局刊) で作成したものです。
光度グラフはComet for Windowsで作成したものです。

---------------------------------------------------------------------

Copyright(C) 1995-2008 Seiichi Yoshida (comet@aerith.net). All rights reserved.